STARLINK-32823, 62823

Orbit data source: Space-Track

STARLINK-32823, 62823 is a payload satellite owned by SpaceX/Seattle (US) in LEO that was launched on Fri, 24 Jan 2025 UTC via an FALCON 9 launch vehicle from the Air Force Western Test Range (AFWTR). Payload-class satellites include a variety of spacecraft equipped with specific instruments for various scientific and technological missions. These include communications satellites like Starlink; space stations such as the ISS; scientific satellites like the Hubble; Earth observation satellites from companies like Planet Labs, Umbra, and HawkEye 360; GPS; miniature CubeSats for education and research; and military/defense satellites.

Loading next visibility...
Identifier
62823, 2025-018T
Orbit
LEO
Country
Flag of USUS
Related business
Manufacturer
SpaceX/Seattle
Mission
Operational Commercial Communications
Bus & Motor
STARLINK V2M, Unknown motor
Mass
730 kg wet, ~700 kg dry
Launch date (UTC)
2025-01-24 (8 months ago)
Launch vehicle
FALCON 9
Launch site
Air Force Western Test Range (AFWTR)
Object type
Payload
Rocket body
Debris
Shape & HBR
Box + 2 Pan, 14.5 m
Radar Cross Section
33.884 m², Large (>1 m²)

Expand to show TLE details & history
Last TLE update: 17 hours ago

TLE from 17 hours ago
0 STARLINK-32823
1 62823U 25018T   25260.09581489  .00024500  00000-0  83681-3 0  9996
2 62823  53.1612  35.6878 0001263  95.4398 264.6747 15.30192063 36609
Epoch: 2025-09-17T02:17Z
TLE epoch observation values (Epoch: 2025-09-17T02:17:58.406Z)
Latitude
-0.00001°
Longitude
4.91776°
Altitude
476.219 km
Speed
7.629 km/s
True Right ascension
02h 22m 45s
True Declination
0° 00' 00"
Sunlit
Object was in full shadow at epoch
Visualization orbit readout
Latitude
Unknown
Longitude
Unknown
Altitude
Unknown
Speed
Unknown
Apparent Right ascension
Unknown
Apparent Declination
Unknown
Sunlit
N/A
Visualization observer readout
Local Sidereal Time
11:43:37
Azimuth
Unknown
Elevation
Unknown
Doppler factor
Unknown
Orbital elements
Apogee altitude
476.361 km
Perigee altitude
474.629 km
Semi-major axis
6,853.632 km
Eccentricity
0.00013
Inclination
53.1612°
RAAN
35.6878°
Arg. of periapsis
95.4398°
True anomaly
264.66029°
Mean anomaly
264.6747°
Eccentric anomaly
264.66749°
Mean motion
3.82527 °/min
Orbital period
94.11 mins
BSTAR
0.00083681
Loading maneuver chart data...
Computing Atmospheric mass density...
Loading historical data...
Loading historical data...
Loading historical data...
Loading historical data...
Loading historical data...
Loading historical data...
Loading historical data...

Documentation

Showing up to 5 results
|